Other Surface Observations
Issued by NWS

Current Version | Previous Version | Text Only | Print | Product List | Glossary On
Versions: 1 2 3 4 5 6 7 8 9 10 11 12 13 14 15 16 17 18 19 20 21 22 23 24 25 26 27 28 29 30 31 32 33 34 35 36 37 38 39 40 41 42 43 44 45 46 47 48 49 50
000
SXUS52 KTAE 231118
OSOTAE
OSOTAE
North Florida/South Alabama/Southwest Georgia Weather Roundup
National Weather Service Tallahassee Florida
600 AM EST SUN NOV 23 2014

Note: "fair" indicates few or no clouds below 12,000 feet with no
significant weather and/or obstructions to visibility.

!FLZ017-115-028-034-025-231200
...North Florida...

CITY           SKY/WX    TMP DP  RH WIND       PRES   REMARKS
TALLAHASSEE    RAIN      70  66  87 SE14      29.93S FOG
APALACHICOLA   CLOUDY    70  66  87 SE12      29.90S
PERRY          LGT RAIN  68  67  97 SE12      29.95F
CROSS CITY       N/A     69  68  96 SE7       29.95F
JACKSONVILLE   LGT RAIN  68  68 100 SE7       30.01S
$$

!FLZ112-006-005-002-011-231200
...Florida Panhandle...

CITY           SKY/WX    TMP DP  RH WIND       PRES   REMARKS
MARIANNA       LGT RAIN  63  63 100 E5        29.91F
BONIFAY        LGT RAIN  62  62 100 E5        29.91F FOG
PANAMA CITY NW CLOUDY    70  66  87 E9        29.88S
TYNDALL AFB    MOCLDY    70  70 100 SE18G28   29.88F
TYND DRONE APT LGT RAIN  70  70 100 MISG      29.86S
DE FUNIAK SPR  CLOUDY    64  64  99 E7        29.88F FOG
EGLIN AFB      CLOUDY    66  65  97 SE17G23   29.85F FOG
DESTIN         CLOUDY    69  67  93 SE17G25   29.85S
HURLBURT       CLOUDY    66  64  94 SE14      29.83S
CRESTVIEW      CLOUDY    65  65 100 E7        29.88R FOG
PENSACOLA      LGT RAIN  65  65 100 E14G22    29.82F FOG
$$

!ALZ063-066-231200
...South Alabama...

CITY           SKY/WX    TMP DP  RH WIND       PRES   REMARKS
DOTHAN         LGT RAIN  61  61 100 E9        29.95F FOG
OZARK CAIRNS   CLOUDY    63  61  94 E9        29.90F
FT RUCKER HELI CLOUDY    62  61  96 E6        29.89F FOG
RUCKER HELI 3  CLOUDY    61  61  98 E8G17     29.92F FOG
RUCKER HELI 2  CLOUDY    61  61 100 SE9       29.91F FOG
FLORALA APT    CLOUDY    64  62  93 E7        29.89F FOG
ANDALUSIA      CLOUDY    66  62  87 SE8       29.89S FOG
TROY           LGT RAIN  61  60  97 E8        29.92S FOG
EUFALA         CLOUDY    62  32  32 E6        29.93F
MOBILE         CLOUDY    63  63 100 E9        29.77F FOG
$$

!GAZ120>161-231200
...Southwest and South Central Georgia...

CITY           SKY/WX    TMP DP  RH WIND       PRES   REMARKS
THOMASVILLE    RAIN      63  63 100 E6        29.97S
BAINBRIDGE     RAIN      63  63 100 E6        29.93F
MOODY AFB      RAIN      63  63 100 NE5       29.99R FOG
VALDOSTA       CLOUDY    65  64  97 CALM      29.98F
MOULTRIE       RAIN      63  63 100 E7        29.98R
BLAKELY        RAIN      63  63 100 E9        29.95S
ALBANY         CLOUDY    61  60  97 E7        29.98F
TIFTON         CLOUDY    60  59  99 E8        29.98S
FITZGERALD     LGT RAIN  60  57  91 E8        30.02S
CORDELE        LGT RAIN  60  59  94 E13G20    29.99S
AMERICUS       LGT RAIN  59  59 100 E9        29.99S
HOMERVILLE     LGT RAIN  66  66 100 E5        29.99S
$$

!GMZ750-755-770-775-231200
...Coastal and Buoy Obs...

STATION/POSITION TIME  TEMP    WIND        PRES    VSBY  WAVE
                       AIR SEA DIR/SP/G                  HT/PER
                 (UTC) (F)     (DEG/KT/KT) (MB)    (MI)  (FT/S)
KEATON BEACH     1100   69     110/ 12/ 16 1014.0F
CEDAR KEY        1056   63     130/ 12/ 12 1015.0F
C TOWER          1100   69     150/ 19/ 21 1012.4R
APALACHICOLA BUO 1100   72 71  150/ 21/ 25 1011.9R         9/ 7
PANAMA CITY BUOY 1030   78 76  170/ 21/ 27 1010.4F        10/ 8
MOBILE BUOY      1050   73 72  160/ 10/ 10 1008.9R         8/ 8
ORANGE BCH AL BU 1100   71 67  120/ 16/ 17 1008.1F         8/ 8
$$



USA.gov is the U.S. government's official web portal to all federal, state and local government web resources and services.